Total_Precipitation_Accumulation
2.20 2.26 3.28 3.22 3.00 2.90 2.78 2.77 2.75 2.75 2.72 2.62 2.40 2.32 2.29 2.20 2.11 2.15 1.99 1.91 1.96 2.13 2.18 2.27 2.31 2.25 2.32 2.32 2.27 2.21 2.22 2.30 2.23 2.00 1.95 1.98 2.13 2.37 2.48 2.51 2.42 2.37 2.68
1.73 2.16 3.18 3.10 2.97 2.82 2.69 2.70 2.64 2.53 2.38 2.28 2.25 2.22 2.23 2.13 2.05 1.97 1.91 1.96 1.99 2.08 2.07 2.14 2.17 2.18 2.20 2.24 2.27 2.34 2.28 2.18 2.12 2.05 2.22 2.24 2.38 2.47 2.43 2.40 2.52 2.55 2.67
1.53 1.78 2.39 3.08 2.95 2.73 2.66 2.72 2.65 2.46 2.18 2.01 1.99 2.03 2.03 1.98 1.98 1.99 2.00 1.98 2.02 1.98 1.88 2.04 2.31 2.32 2.25 2.23 2.25 2.29 2.28 2.19 2.20 2.38 2.88 3.20 2.87 2.71 2.42 2.42 2.50 2.40 2.41
1.37 1.54 1.85 2.76 2.74 2.70 2.68 2.50 2.44 2.21 1.94 1.80 1.79 1.81 1.84 1.96 2.17 2.25 2.19 2.13 2.13 1.93 1.77 1.80 2.19 2.32 2.27 2.14 1.99 2.01 2.15 2.27 2.45 2.75 3.08 3.54 3.40 3.11 2.78 2.60 2.56 2.46 2.37
1.38 1.59 2.25 2.84 2.62 2.57 2.47 2.29 2.27 2.15 1.92 1.81 1.78 1.76 1.84 2.10 2.26 2.24 2.26 2.21 2.14 1.97 1.88 1.97 2.33 2.24 2.19 2.08 1.95 1.97 2.10 2.35 2.61 2.46 2.69 3.14 3.59 3.62 2.99 2.70 2.66 2.64 2.66
1.40 1.58 2.23 2.58 2.33 2.23 2.19 2.15 2.04 2.08 2.10 1.90 1.73 1.78 1.98 2.35 2.39 2.39 2.43 2.19 2.14 2.05 2.07 2.17 2.35 2.32 2.24 2.19 2.10 1.97 2.09 2.40 2.28 2.17 2.60 3.00 3.33 3.45 2.92 2.70 2.71 2.79 2.87
1.22 1.33 1.78 2.27 2.10 2.00 2.00 1.99 1.89 1.98 2.11 2.00 1.77 1.88 2.14 2.46 2.50 2.46 2.35 2.16 2.17 2.16 2.21 2.42 2.44 2.46 2.35 2.20 2.23 2.14 2.11 2.17 1.90 2.13 2.61 3.04 3.12 3.02 2.85 2.69 2.59 2.82 3.07
1.24 1.19 1.38 1.86 1.96 1.83 1.86 2.00 1.91 1.90 2.01 1.96 1.88 1.91 2.08 2.46 2.44 2.41 2.31 2.16 2.10 2.19 2.43 2.75 2.67 2.54 2.34 2.24 2.29 2.36 2.32 2.00 1.60 1.73 2.08 2.84 3.37 3.18 2.82 2.60 2.57 2.68 2.94
1.52 1.39 1.27 1.33 1.52 1.65 1.78 1.93 1.92 1.89 1.86 1.79 1.89 1.94 2.22 2.64 2.39 2.22 2.22 2.15 2.12 2.23 2.37 2.58 2.50 2.38 2.34 2.33 2.29 2.34 2.39 2.21 1.81 1.72 1.71 2.54 3.32 3.32 2.83 2.53 2.41 2.55 2.67
1.61 1.47 1.26 1.15 1.19 1.36 1.42 1.62 1.87 1.92 1.85 1.74 1.83 1.99 2.27 2.66 2.41 2.20 2.09 2.25 2.34 2.32 2.45 2.62 2.48 2.32 2.33 2.24 2.21 2.37 2.40 2.10 1.75 1.60 1.85 2.54 3.46 3.57 3.16 2.49 2.20 2.22 2.26
1.39 1.29 1.19 1.13 1.17 1.29 1.35 1.42 1.76 1.83 1.74 1.57 1.57 1.87 1.99 2.12 2.11 2.17 2.24 2.56 2.55 2.55 2.63 2.72 2.68 2.46 2.19 2.09 2.20 2.30 2.12 1.83 1.82 1.75 2.17 2.98 3.47 3.50 3.27 2.75 2.25 1.99 1.93
1.11 1.00 0.97 0.96 1.04 1.16 1.22 1.59 1.89 1.69 1.62 1.41 1.44 1.52 1.67 1.88 2.13 2.01 2.28 2.71 2.62 2.54 2.49 2.62 2.62 2.24 1.74 1.45 1.74 1.84 1.68 1.82 1.98 1.82 2.38 3.20 3.53 3.47 3.09 2.79 2.39 2.11 1.99
0.86 0.78 0.74 0.68 0.69 0.78 1.02 1.38 1.70 1.86 1.87 1.86 1.68 1.56 1.65 1.47 1.48 1.47 1.56 1.77 1.85 1.89 1.81 1.92 2.03 1.74 1.46 1.38 1.42 1.48 1.68 1.76 2.11 2.08 2.52 3.17 3.48 3.56 3.22 2.89 2.51 2.30 2.23
0.82 0.78 0.69 0.65 0.60 0.63 0.71 0.92 1.15 1.33 1.46 1.56 1.48 1.31 1.44 1.38 1.31 1.33 1.36 1.34 1.33 1.41 1.54 1.53 1.64 1.62 1.43 1.32 1.29 1.42 1.56 1.63 1.89 2.29 2.69 2.89 3.23 3.57 3.40 2.99 2.70 2.50 2.43
0.93 0.92 0.82 0.70 0.66 0.66 0.71 0.78 0.86 1.05 1.18 1.23 1.31 1.25 1.25 1.36 1.39 1.35 1.26 1.24 1.15 1.22 1.36 1.47 1.49 1.53 1.55 1.47 1.32 1.45 1.56 1.71 1.83 1.93 2.21 2.50 2.84 3.42 3.76 3.59 3.20 2.84 2.69
1.03 0.97 0.93 0.82 0.79 0.75 0.74 0.76 0.84 0.93 0.99 1.02 1.03 1.03 1.14 1.29 1.33 1.35 1.32 1.36 1.30 1.30 1.40 1.41 1.34 1.48 1.66 1.58 1.39 1.37 1.44 1.58 1.75 1.73 1.86 2.12 2.45 2.86 3.66 4.03 3.86 3.53 3.36
0.98 0.91 0.91 0.92 0.93 0.92 0.88 0.81 0.81 0.92 1.00 1.00 0.98 0.90 0.93 1.06 1.16 1.26 1.28 1.27 1.30 1.42 1.47 1.52 1.35 1.40 1.45 1.45 1.45 1.40 1.35 1.42 1.51 1.58 1.54 1.62 1.82 2.25 2.95 3.65 4.09 4.06 3.96
0.80 0.79 0.88 0.88 0.91 0.95 0.95 0.95 0.97 0.99 1.08 1.03 1.02 0.94 0.90 0.94 1.06 1.23 1.27 1.23 1.23 1.42 1.57 1.66 1.56 1.56 1.54 1.52 1.54 1.50 1.39 1.43 1.36 1.44 1.48 1.44 1.66 1.68 2.14 2.80 3.36 3.59 3.83
0.73 0.74 0.76 0.81 0.80 0.87 0.93 0.97 1.09 1.13 1.15 1.11 1.10 1.01 0.99 1.05 1.16 1.33 1.44 1.44 1.41 1.46 1.52 1.52 1.62 1.66 1.66 1.66 1.57 1.53 1.50 1.45 1.48 1.37 1.44 1.50 1.46 1.58 1.80 2.09 2.55 2.91 3.20
0.72 0.71 0.70 0.75 0.77 0.80 0.91 1.02 1.21 1.34 1.33 1.33 1.23 1.15 1.19 1.35 1.50 1.62 1.62 1.69 1.72 1.66 1.69 1.67 1.74 1.73 1.66 1.73 1.58 1.47 1.47 1.39 1.52 1.61 1.54 1.59 1.54 1.51 1.88 2.10 2.16 2.20 2.61
0.68 0.69 0.70 0.68 0.74 0.77 0.81 0.96 1.20 1.48 1.59 1.68 1.59 1.39 1.34 1.47 1.77 2.02 1.96 2.02 2.08 2.02 2.00 2.00 2.26 2.22 1.96 1.78 1.88 1.74 1.57 1.45 1.63 1.71 1.65 1.74 1.80 1.89 2.12 2.14 1.99 1.89 1.85
0.55 0.61 0.65 0.65 0.71 0.73 0.78 0.96 1.14 1.31 1.32 1.47 1.58 1.55 1.47 1.46 1.64 1.81 2.08 2.22 2.18 2.32 2.42 2.39 2.77 2.93 2.44 2.01 2.16 2.44 2.18 1.99 1.80 1.67 1.72 1.79 1.94 2.15 2.23 2.10 1.92 1.72 1.62
0.47 0.47 0.50 0.53 0.61 0.71 0.83 1.05 1.29 1.53 1.61 1.63 1.53 1.60 1.61 1.51 1.58 1.73 1.88 2.02 2.06 2.21 2.40 2.52 2.84 3.40 3.17 2.50 2.32 2.78 2.59 2.40 2.27 1.93 1.75 1.76 1.85 2.12 2.39 2.33 2.08 1.83 1.62
0.45 0.44 0.47 0.54 0.68 0.88 1.06 1.28 1.52 1.72 1.78 1.65 1.64 1.66 1.55 1.46 1.45 1.59 1.72 1.83 1.96 2.01 2.20 2.29 2.43 3.02 3.45 3.10 2.80 2.50 2.20 2.18 2.39 2.39 2.01 1.81 1.80 1.93 2.15 2.15 2.03 1.97 1.82
0.53 0.59 0.61 0.76 0.98 1.22 1.43 1.69 1.98 1.95 1.83 1.74 1.68 1.64 1.59 1.57 1.53 1.54 1.72 1.77 1.78 1.87 2.02 2.36 2.63 2.93 3.19 3.22 3.20 2.98 2.67 2.39 2.06 2.35 2.43 2.09 1.94 1.90 1.95 2.00 1.91 1.90 1.89
0.83 0.99 1.18 1.38 1.52 1.61 1.73 1.88 2.00 1.96 1.96 1.91 1.71 1.61 1.59 1.64 1.69 1.69 1.74 1.77 1.75 1.79 1.92 2.18 2.50 2.73 3.05 3.30 3.27 3.06 2.93 2.81 2.54 2.48 2.37 2.21 2.23 2.08 1.95 1.89 1.75 1.74 1.88